SCP
1 1 1 0 0 0 0 0 0 0 0 0 0 0 0 0 0 0 0 0 0 0 0 0 0 0 0 0 0 0 0 0 0 0 0 0 0 0 0 0 0 0 0
1 1 0 0 0 0 0 0 0 0 0 0 0 0 0 0 0 0 0 0 0 0 0 0 0 0 0 0 0 0 0 0 0 0 0 0 0 0 0 0 0 0 0
0 0 0 0 0 0 0 0 0 0 0 0 0 0 0 0 0 0 0 0 0 0 0 0 0 0 0 0 0 0 0 0 0 0 0 0 0 0 0 0 0 0 0
0 0 0 0 0 0 0 0 0 0 0 0 0 0 0 0 0 0 0 0 0 0 0 0 0 0 0 0 0 0 0 0 0 0 0 0 0 0 0 0 0 0 0
0 0 0 0 0 0 0 0 0 0 0 0 0 0 0 0 0 0 0 0 0 0 0 0 0 0 0 0 0 0 0 0 0 0 0 0 0 0 0 0 0 0 0
0 0 0 0 0 0 0 0 0 0 0 0 0 0 0 0 0 0 0 0 0 0 0 0 0 0 0 0 0 0 0 0 0 0 0 0 0 0 0 0 0 0 0
0 0 0 0 0 0 0 0 0 0 0 0 0 0 0 0 0 0 0 0 0 0 0 0 0 0 0 0 0 0 0 0 0 0 0 0 0 0 0 0 0 0 0
0 0 0 0 0 0 0 0 0 0 0 0 0 0 0 0 0 0 0 0 0 0 0 0 0 0 0 0 0 0 0 0 0 0 0 0 0 0 0 0 0 0 0
0 0 0 0 0 0 0 0 0 0 0 0 0 0 0 0 0 0 0 0 0 0 0 0 0 0 0 0 0 0 0 0 0 0 0 0 0 0 0 0 0 0 0
0 0 0 0 0 0 0 0 0 0 0 0 0 0 0 0 0 0 0 0 0 0 0 0 0 0 0 0 0 0 0 0 0 0 0 0 0 0 0 0 0 0 0
0 0 0 0 0 0 0 0 0 0 0 0 0 0 0 0 0 0 0 0 0 0 0 0 0 0 0 0 0 0 0 0 0 0 0 0 0 0 0 0 0 0 0
0 0 0 0 0 0 0 0 0 0 0 0 0 0 0 0 0 0 0 0 0 0 0 0 0 0 0 0 0 0 0 0 0 0 0 0 0 0 0 0 0 0 0
0 0 0 0 0 0 0 0 0 0 0 0 0 0 0 0 0 0 0 0 0 0 0 0 0 0 0 0 0 0 0 0 0 0 0 0 0 0 0 0 0 0 0
0 0 0 0 0 0 0 0 0 0 0 0 0 0 0 0 0 0 0 0 0 0 0 0 0 0 0 0 0 0 0 0 0 0 0 0 0 0 0 0 0 0 0
0 0 0 0 0 0 0 0 0 0 0 0 0 0 0 0 0 0 0 0 0 0 0 0 0 0 0 0 0 0 0 0 0 0 0 0 0 0 0 0 0 0 0
0 0 0 0 0 0 0 0 0 0 0 0 0 0 0 0 0 0 0 0 0 0 0 0 0 0 0 0 0 0 0 0 0 0 0 0 0 0 0 0 0 0 0
0 0 0 0 0 0 0 0 0 0 0 0 0 0 0 0 0 0 0 0 0 0 0 0 0 0 0 0 0 0 0 0 0 0 0 0 0 0 0 0 0 0 0
0 0 0 0 0 0 0 0 0 0 0 0 0 0 0 0 0 0 0 0 0 0 0 0 0 0 0 0 0 0 0 0 0 0 0 0 0 0 0 0 0 0 0
0 0 0 0 0 0 0 0 0 0 0 0 0 0 0 0 0 0 0 0 0 0 0 0 0 0 0 0 0 0 0 0 0 0 0 0 0 0 0 0 0 0 0
0 0 0 0 0 0 0 0 0 0 0 0 0 0 0 0 0 0 0 0 0 0 0 0 0 0 0 0 0 0 0 0 0 0 0 0 0 0 0 0 0 0 0
0 0 0 0 0 0 0 0 0 0 0 0 0 0 0 0 0 0 0 0 0 0 0 0 0 0 0 0 0 0 0 0 0 0 0 0 0 0 0 0 0 0 0
0 0 0 0 0 0 0 0 0 0 0 0 0 0 0 0 0 0 0 0 0 0 0 0 0 0 0 0 0 0 0 0 0 0 0 0 0 0 0 0 0 0 0
0 0 0 0 0 0 0 0 0 0 0 0 0 0 0 0 0 0 0 0 0 0 0 0 0 0 0 0 0 0 0 0 0 0 0 0 0 0 0 0 0 0 0
0 0 0 0 0 0 0 0 0 0 0 0 0 0 0 0 0 0 0 0 0 0 0 0 0 0 0 0 0 0 0 0 0 0 0 0 0 0 0 0 0 0 0
0 0 0 0 0 0 0 0 0 0 0 0 0 0 0 0 0 0 0 0 0 0 0 0 0 0 0 0 0 0 0 0 0 0 0 1 1 0 0 0 0 0 0
0 0 0 0 0 0 0 0 0 0 0 0 0 0 0 0 0 0 0 0 0 0 0 0 0 0 0 0 0 0 0 0 0 0 0 0 1 1 0 0 0 0 0
Wind_Speed
1 2 2 2 2 2 2 2 1 2 2 3 3 3 3 3 3 3 3 3 3 3 3 2 2 2 1 1 0 1 1 1 2 1 1 1 2 2 2 1 1 1 1
2 2 2 2 2 2 2 2 2 2 2 2 2 3 3 3 3 3 3 4 3 3 3 3 3 2 2 1 0 0 1 2 2 2 1 1 1 2 2 2 1 1 1
2 3 2 2 2 2 2 2 2 2 3 3 3 3 4 3 3 3 3 3 3 3 3 3 3 2 2 1 1 0 1 1 2 2 1 1 1 1 1 1 1 1 1
3 2 2 1 1 1 2 2 3 3 3 3 3 3 3 3 3 3 3 3 3 3 3 3 3 2 2 1 1 1 0 1 1 2 1 0 1 1 0 1 1 2 2
3 2 1 1 1 1 2 2 3 3 3 3 3 4 4 3 3 4 3 3 3 4 4 4 3 3 3 2 1 1 0 1 1 2 1 0 0 0 0 0 1 1 1
3 2 1 1 1 1 1 2 2 3 3 3 3 3 4 4 5 5 3 2 3 3 4 4 4 4 4 4 3 2 0 1 2 2 1 2 2 1 1 1 1 1 1
2 2 2 1 1 1 1 2 2 2 2 3 3 3 4 4 5 5 5 2 2 2 3 3 3 3 4 3 3 4 3 2 1 2 2 2 2 2 2 1 1 0 1
2 2 2 1 1 1 1 1 1 1 1 2 3 3 3 4 5 4 5 3 2 3 3 2 2 3 3 3 2 3 3 2 1 0 1 2 2 2 3 2 2 1 1
2 2 2 2 1 1 0 1 1 1 1 2 2 3 3 5 5 5 4 2 2 3 3 3 2 3 5 4 2 2 3 3 3 2 1 0 1 2 3 3 2 1 0
2 2 2 2 1 1 1 1 1 0 1 2 3 3 3 4 5 4 3 1 2 3 3 3 3 3 4 3 1 1 2 2 3 3 3 3 2 1 2 3 2 2 1
2 1 1 1 1 1 0 0 0 1 2 2 3 3 3 3 5 4 3 1 1 2 3 3 3 5 4 3 1 1 1 1 1 1 2 2 2 1 1 1 2 2 2
2 2 1 1 1 1 1 0 1 1 2 2 3 4 3 3 3 4 4 2 1 1 2 3 3 5 4 3 1 1 1 1 0 1 1 2 2 2 2 1 1 3 4
2 1 1 0 0 0 1 0 1 1 1 2 2 3 4 3 3 4 4 4 3 1 2 3 5 5 4 2 2 1 0 1 1 1 1 1 1 2 2 2 1 1 2
2 1 1 1 0 1 0 1 1 1 2 2 2 3 4 4 3 3 3 3 3 2 2 3 4 3 2 1 2 1 1 0 1 0 1 1 1 1 1 1 1 2 2
2 1 1 1 1 1 1 1 2 3 3 3 3 3 3 4 5 4 3 3 3 3 3 2 2 2 3 2 1 1 1 0 0 1 1 1 1 1 2 1 1 1 1
2 2 1 1 1 1 1 3 3 4 5 6 7 6 5 7 9 8 6 6 6 4 1 1 2 2 2 3 2 2 1 1 1 1 1 2 2 2 2 1 1 1 2
3 3 2 2 2 2 1 2 3 5 5 5 5 6 7 8 9 8 8 6 5 2 1 2 3 3 3 3 2 2 2 2 2 2 2 2 2 2 2 2 2 2 3
3 3 3 3 3 3 3 3 2 3 4 5 5 6 7 8 8 8 6 3 2 1 2 3 4 4 3 3 3 3 3 3 2 2 3 3 3 3 3 3 3 4 4
3 3 3 3 3 3 3 3 3 3 4 4 5 6 6 6 6 5 3 2 3 4 3 4 4 4 4 4 4 3 4 4 4 3 3 4 4 3 4 4 4 5 4
3 5 4 3 3 3 3 3 3 4 4 4 5 5 4 2 3 3 2 3 4 5 5 5 5 5 4 4 4 4 4 4 5 4 5 4 4 4 5 6 5 4 4
3 4 5 3 3 4 4 4 4 4 5 5 6 6 5 4 5 6 5 5 5 6 6 5 5 5 5 5 5 5 6 5 5 5 5 5 5 5 5 5 5 5 5
4 4 4 4 4 4 4 4 4 5 6 7 6 6 7 5 5 6 6 6 6 6 6 6 6 6 6 6 6 6 6 6 6 6 6 6 5 5 5 5 5 5 5
4 4 4 4 4 4 5 4 5 5 6 6 6 6 5 5 6 6 7 7 6 6 6 5 6 7 6 6 6 7 7 7 7 6 6 6 6 5 5 6 7 7 7
4 5 5 4 4 4 4 5 5 6 6 6 6 6 6 6 6 7 7 7 6 6 6 6 7 9 11 8 6 7 7 8 7 7 9 8 7 6 6 6 7 8 8
5 5 5 5 5 5 5 5 5 6 6 6 6 7 7 6 7 7 7 6 7 7 8 7 6 8 10 12 10 9 8 9 8 7 6 7 8 8 8 8 7 8 8
5 5 5 5 5 5 5 5 6 6 6 6 6 6 7 7 7 7 7 6 7 7 7 7 8 10 11 9 10 10 9 8 8 8 7 6 8 8 8 7 9 8 9
Wind_Direction
113 95 87 73 64 66 58 30 14 6 7 7 2 5 10 11 9 13 3 359 6 359 0 9 355 346 350 348 195 185 187 187 208 269 278 277 278 308 327 330 331 344 3
123 106 96 82 69 59 44 26 24 17 6 3 7 13 11 9 4 7 1 358 360 359 352 357 351 352 358 346 324 227 205 195 186 208 264 277 292 295 303 317 335 343 320
119 113 98 81 71 54 33 26 23 17 8 12 21 17 8 1 358 358 356 353 356 352 347 350 339 345 346 345 335 282 234 192 181 171 213 275 295 302 325 338 356 354 336
124 117 111 99 86 62 38 29 23 20 20 17 17 10 0 355 358 357 358 353 351 352 352 347 337 334 328 338 337 313 200 134 137 146 161 228 280 286 280 338 357 13 355
127 129 138 112 85 65 48 33 27 23 20 17 17 7 359 355 355 356 357 1 354 354 357 350 342 347 354 357 342 323 122 138 141 147 157 196 247 231 212 304 27 355 350
131 135 120 106 86 64 52 43 28 16 7 12 14 3 357 352 353 0 5 3 354 356 351 345 347 357 1 6 16 19 98 169 169 167 186 201 229 219 183 159 119 29 342
142 141 141 136 115 65 50 42 22 7 10 4 359 360 347 335 349 1 7 11 356 351 342 341 352 2 5 6 11 22 30 44 153 175 187 209 207 196 176 160 142 161 266
153 159 166 153 146 108 79 39 359 2 356 343 344 342 334 334 350 357 2 14 1 344 336 328 331 339 350 354 5 25 23 15 14 149 206 228 219 201 184 170 149 126 291
174 190 186 172 165 148 145 305 323 351 336 331 318 326 330 329 344 350 359 6 351 335 329 333 327 326 331 344 16 24 17 9 25 49 60 15 210 205 179 152 151 133 353
201 204 186 174 176 199 237 291 301 280 306 324 326 322 316 317 330 342 350 359 341 332 331 331 331 327 326 333 8 40 14 349 5 13 25 26 41 76 170 182 179 168 195
184 170 161 169 187 201 187 339 328 340 346 344 334 327 322 317 324 338 350 359 308 319 329 331 326 326 324 322 309 235 250 283 340 1 3 4 12 34 64 168 192 194 202
148 150 159 168 203 152 115 0 24 30 1 344 342 336 333 329 327 330 343 344 299 285 300 310 311 321 331 333 329 257 242 229 97 24 16 1 358 352 342 328 225 221 230
131 153 181 204 180 132 156 277 348 356 338 323 326 325 322 326 321 324 329 325 318 280 281 296 310 325 337 343 352 355 40 132 109 53 356 333 321 309 316 329 330 263 249
142 170 186 167 324 4 350 265 253 274 294 299 298 304 312 314 313 317 322 322 324 322 321 325 329 339 351 343 343 355 354 189 164 235 292 298 307 324 335 334 326 329 327
157 171 175 186 215 316 309 264 249 247 232 244 263 263 281 299 294 294 297 306 313 314 322 334 351 354 353 350 349 334 314 235 205 235 254 286 301 301 295 282 266 266 276
174 193 200 211 229 242 292 309 287 261 274 257 244 246 257 256 277 293 294 290 294 298 308 311 311 311 307 308 312 314 294 267 252 249 259 264 280 288 293 292 256 256 268
191 204 208 216 229 239 245 272 304 316 313 296 275 266 258 272 283 287 291 299 298 266 223 267 274 278 276 277 277 271 272 272 260 257 262 264 261 267 272 280 277 270 273
199 211 212 220 226 234 239 247 254 275 303 309 305 288 280 277 278 283 288 306 303 234 236 257 266 268 266 266 265 258 260 265 253 248 252 254 254 257 264 268 270 269 275
204 218 220 225 229 232 238 247 256 262 271 284 297 302 297 289 285 280 250 228 264 274 263 257 257 259 260 260 259 254 252 254 252 247 249 249 248 247 255 260 261 262 261
219 229 222 222 234 237 238 246 259 267 273 278 281 282 292 302 294 290 244 232 248 262 266 262 260 255 253 254 251 247 248 249 248 246 249 249 246 244 251 257 258 260 260
225 236 230 228 234 238 241 246 253 261 269 274 274 272 261 259 267 270 268 255 248 253 255 255 256 255 251 248 247 246 246 249 245 244 247 247 245 245 248 251 253 256 261
222 232 231 235 241 245 249 249 250 256 264 271 279 283 271 254 257 261 263 263 259 251 249 247 252 252 247 243 241 240 244 248 247 243 243 244 242 244 247 248 251 254 255
216 227 236 242 244 251 258 258 255 257 262 267 272 278 277 267 264 262 264 264 263 260 255 244 248 255 252 244 238 235 240 245 244 239 239 244 246 247 244 246 251 255 256
217 227 237 245 246 248 255 262 263 263 264 267 270 272 271 268 269 270 269 267 266 263 260 252 250 254 257 255 248 242 242 246 248 243 239 242 246 248 246 248 251 253 255
218 228 235 241 247 253 258 265 268 270 271 271 271 272 274 272 271 271 270 268 268 267 267 261 256 257 258 257 256 253 248 242 241 243 240 240 246 248 249 252 253 256 253
222 229 236 239 244 249 254 261 267 269 270 271 272 272 273 273 272 273 274 271 269 268 267 264 258 257 258 259 260 258 251 248 245 238 234 237 240 245 246 250 255 255 258